Flag Weather past 2 weeks in Koudougou, Burkina Faso

Now
97 °F

Passing clouds.


Feels Like: 92 °F
Forecast: N/A
Wind: 6 mph from Southeast

Location: Ouagadougou Airport

Current Time: Nov 23, 2014 at 2:52:51 PM

Latest Report: Nov 23, 2014 at 2:00 PM


Visibility: N/A

Pressure: 29.89 "Hg

Humidity: 14%

Dew point: 41 °F

Location of KoudougouLocation

Historic Weather in Koudougou — Graph

°F

Koudougou temperature yesterday

Maximum temperature yesterday: 97 °F (at 1:00 PM)
Minimum temperature yesterday: 68 °F (at 6:00 AM)
Average temperature yesterday: 83 °F

Past Weeks' High & Low Weather Summary

 TemperatureHumidityPressure
High102 °F (Nov 10, 3:00 PM)78% (Nov 15, 6:00 AM)30.01 "Hg (Nov 15, 6:00 AM)
Low64 °F (Nov 23, 6:00 AM)10% (Nov 13, 4:00 PM)29.74 "Hg (Nov 10, 3:00 PM)
Average85 °F37%29.88 "Hg
* Reported Nov 8 1:00 PM — Nov 23 1:00 PM, Koudougou, Weather by CustomWeather, © 2014

Note: Actual official high and low records may vary slightly from our data, if they occured in-between our weather recording intervals... More about our weather records

Advertising

Koudougou weather history for previous 24 hours

 ConditionsComfort  
Time TempWeatherWind HumidityBarometerVisibility
1:00 PM
Nov 23
97 °FPassing clouds.9 mph14%29.92 "HgN/A
12:00 PM95 °FPassing clouds.13 mph15%29.95 "HgN/A
11:00 AM93 °FClear.13 mph17%29.98 "Hg5 mi
10:00 AM90 °FClear.13 mph20%30.01 "Hg5 mi
9:00 AM86 °FClear.10 mph22%30.01 "Hg4 mi
8:00 AM81 °FHaze.8 mph24%30.01 "Hg2 mi
7:00 AM66 °FClear.No wind56%29.98 "Hg4 mi
6:00 AM64 °FClear.No wind64%29.95 "Hg4 mi
5:00 AM66 °FClear.No wind56%29.95 "Hg10 mi
4:00 AM66 °FClear.No wind64%29.95 "Hg10 mi
3:00 AM68 °FClear.No wind60%29.92 "Hg10 mi
2:00 AM68 °FClear.No wind60%29.92 "Hg10 mi
1:00 AM70 °FClear.No wind53%29.95 "Hg10 mi
12:00 AM70 °FClear.No wind53%29.95 "Hg10 mi
11:00 PM
Nov 22
72 °FClear.No wind44%29.95 "Hg4 mi
10:00 PM75 °FClear.2 mph34%29.95 "Hg4 mi
9:00 PM81 °FClear.3 mph28%29.95 "Hg4 mi
8:00 PM81 °FClear.5 mph26%29.95 "Hg5 mi
7:00 PM82 °FClear.3 mph23%29.92 "Hg5 mi
6:00 PM88 °FClear.3 mph17%29.89 "Hg5 mi
5:00 PM93 °FPassing clouds.7 mph13%29.86 "HgN/A
4:00 PM95 °FPassing clouds.8 mph12%29.86 "HgN/A
3:00 PM97 °FPassing clouds.12 mph13%29.86 "HgN/A
2:00 PM97 °FSunny.12 mph13%29.89 "Hg10 mi
Weather by CustomWeather, © 2014

See weather overviewHow to use our weather pages